Weather History for Mattoon, IL

Change the Weather History Date:

Monday, October 7, 2013

  Actual Average Record
Temperature  
Mean Temperature 56 °F 58 °F  
Max Temperature 68 °F 69 °F 90 °F (2007)
Min Temperature 44 °F 47 °F 25 °F (1952)
Degree Days  
Heating Degree Days 9 8  
Month to date heating degree days 17 51  
Since 1 July heating degree days 57 122  
Cooling Degree Days 0 1  
Month to date cooling degree days 29 9  
Year to date cooling degree days 1005 1047  
Growing Degree Days 6 (Base 50)    
Moisture  
Dew Point 47 °F    
Average Humidity 66    
Maximum Humidity 89    
Minimum Humidity 42    
Precipitation  
Precipitation 0.02 in 0.09 in 0.94 in (2014)
Month to date precipitation 0.68 0.58  
Year to date precipitation 39.41 29.55  
Sea Level Pressure  
Sea Level Pressure 29.98 in    
Wind  
Wind Speed 7 mph (WNW)    
Max Wind Speed 17 mph    
Max Gust Speed 22 mph    
Visibility 10 miles    
Events Rain    
T = Trace of Precipitation, MM = Missing Value Source: NWS Daily Summary

Daily Weather History Graph

Daily Weather History Graph

Search for Another Location

Airport:

Trip Planner

Search our weather history database for the weather conditions in past years. The results will help you decide how hot, cold, wet, or windy it might be!

Date:

Astronomy

Oct. 07, 2013 Rise Set
Actual Time 6:55 AM CDT 6:25 PM CDT
Civil Twilight 6:28 AM CDT 6:52 PM CDT
Nautical Twilight 5:57 AM CDT 7:23 PM CDT
Astronomical Twilight 5:26 AM CDT 7:54 PM CDT
Moon 9:44 AM CDT (10/7) 8:11 PM CDT (10/7)
Length of Visible Light 12h 24m
Length of Day
11h 30m
Waxing Crescent, 9% of the Moon is Illuminated
Oct 7
Waxing Crescent
Oct 11
First Quarter
Oct 18
Full
Oct 26
Last Quarter
Nov 3
New

Hourly Weather History & Observations

Time (CDT) Temp. Windchill Dew Point Humidity Pressure Visibility Wind Dir Wind Speed Gust Speed Precip Events Conditions
12:53 AM 52.0 °F - 42.1 °F 69% 29.83 in 10.0 mi SW 9.2 mph - N/A   Overcast
1:53 AM 48.9 °F - 46.9 °F 93% 29.83 in 10.0 mi WSW 11.5 mph 18.4 mph 0.00 in Rain Light Rain
2:10 AM 48.2 °F - 46.4 °F 93% 29.85 in 6.0 mi NW 16.1 mph - 0.01 in Rain Light Rain
2:23 AM 46.4 °F 41.9 °F 46.4 °F 100% 29.85 in 10.0 mi WNW 9.2 mph - 0.02 in Rain Light Rain
2:36 AM 46.4 °F 41.1 °F 46.4 °F 100% 29.85 in 10.0 mi WNW 11.5 mph - 0.02 in   Overcast
2:53 AM 46.0 °F 41.0 °F - N/A% 29.86 in 10.0 mi WNW 10.4 mph - 0.02 in   Overcast
3:04 AM 46.4 °F 41.1 °F - N/A% 29.86 in 10.0 mi WNW 11.5 mph - N/A   Overcast
3:53 AM 45.0 °F 40.1 °F - N/A% 29.89 in 10.0 mi WNW 9.2 mph - N/A   Scattered Clouds
4:09 AM 44.6 °F 40.2 °F - N/A% 29.89 in 10.0 mi WNW 8.1 mph - N/A   Mostly Cloudy
4:41 AM 44.6 °F 40.7 °F - N/A% 29.91 in 10.0 mi West 6.9 mph - N/A   Scattered Clouds
4:53 AM 44.1 °F 40.8 °F - N/A% 29.91 in 10.0 mi West 5.8 mph - N/A   Scattered Clouds
5:32 AM 44.6 °F 38.4 °F - N/A% 29.92 in 10.0 mi WNW 12.7 mph - N/A   Mostly Cloudy
5:53 AM 44.1 °F 40.1 °F - N/A% 29.93 in 10.0 mi West 6.9 mph - N/A   Mostly Cloudy
6:04 AM 44.6 °F 42.2 °F - N/A% 29.92 in 10.0 mi West 4.6 mph - N/A   Partly Cloudy
6:31 AM 44.6 °F 40.2 °F - N/A% 29.94 in 10.0 mi West 8.1 mph - N/A   Scattered Clouds
6:41 AM 44.6 °F 39.2 °F - N/A% 29.94 in 10.0 mi WNW 10.4 mph - N/A   Mostly Cloudy
6:53 AM 45.0 °F 39.7 °F - N/A% 29.95 in 10.0 mi West 10.4 mph - N/A   Overcast
7:18 AM 44.6 °F 40.2 °F - N/A% 29.95 in 10.0 mi West 8.1 mph - N/A   Scattered Clouds
7:53 AM 46.9 °F - - N/A% 29.96 in 10.0 mi West 4.6 mph - N/A   Clear
8:50 AM 48.2 °F - 44.6 °F 87% 30.00 in 9.0 mi West 8.1 mph - N/A   Scattered Clouds
8:53 AM 48.9 °F - 45.0 °F 86% 30.00 in 9.0 mi West 8.1 mph - N/A   Mostly Cloudy
9:34 AM 50.0 °F - 46.4 °F 87% 30.01 in 10.0 mi West 9.2 mph - N/A   Overcast
9:49 AM 51.8 °F - 46.4 °F 82% 30.02 in 10.0 mi West 9.2 mph - N/A   Overcast
9:53 AM 51.1 °F - 46.9 °F 86% 30.03 in 10.0 mi West 9.2 mph - N/A   Overcast
10:53 AM 53.1 °F - 48.0 °F 83% 30.05 in 10.0 mi West 11.5 mph - N/A   Overcast
11:13 AM 53.6 °F - 48.2 °F 82% 30.05 in 10.0 mi WNW 12.7 mph - N/A   Overcast
11:53 AM 55.0 °F - 48.0 °F 77% 30.06 in 10.0 mi WNW 13.8 mph - N/A   Overcast
12:53 PM 60.1 °F - 48.0 °F 64% 30.04 in 10.0 mi WNW 11.5 mph 20.7 mph N/A   Scattered Clouds
1:53 PM 64.0 °F - 46.0 °F 52% 30.03 in 10.0 mi WNW 12.7 mph 19.6 mph N/A   Clear
2:53 PM 66.9 °F - 45.0 °F 45% 30.04 in 10.0 mi NNW 9.2 mph 17.3 mph N/A   Clear
3:53 PM 68.0 °F - 45.0 °F 43% 30.03 in 10.0 mi NW 8.1 mph - N/A   Clear
4:53 PM 68.0 °F - 45.0 °F 43% 30.04 in 10.0 mi NW 10.4 mph - N/A   Clear
5:53 PM 64.9 °F - 46.0 °F 50% 30.05 in 10.0 mi WNW 6.9 mph - N/A   Clear
6:53 PM 57.9 °F - 46.9 °F 67% 30.07 in 10.0 mi Calm Calm - N/A   Clear
7:53 PM 55.9 °F - 48.9 °F 77% 30.09 in 10.0 mi Calm Calm - N/A   Clear
8:53 PM 55.9 °F - 46.9 °F 72% 30.11 in 10.0 mi Calm Calm - N/A   Clear
9:53 PM 52.0 °F - 48.0 °F 86% 30.12 in 10.0 mi Calm Calm - N/A   Clear
10:53 PM 54.0 °F - 50.0 °F 86% 30.13 in 10.0 mi Calm Calm - N/A   Clear
11:53 PM 55.0 °F - 46.9 °F 74% 30.14 in 10.0 mi SW 5.8 mph - N/A   Clear